Regional Weather Roundup
Issued by NWS Spokane, WA

Home | Current Version | Previous Version | Text Only | Print | Product List | Glossary On
Versions: 1 2 3 4 5 6 7 8 9 10 11 12 13 14 15 16 17 18 19 20 21 22 23 24 25 26 27 28 29 30 31 32 33 34 35 36 37 38 39 40 41 42 43 44 45 46 47 48 49 50
528
NZUS01 KOTX 250005
RWROTX

Eastern Washington/Northern Idaho Roundup
National Weather Service, Spokane WA
400 PM PST FRI FEB 24 2017

Note: "fair" indicated few or no clouds below 12,000 feet with no
significant weather and/or obstructions to visibility.

...Northeast Washington and Northern Idaho Panhandle...

CITY           SKY/WX    TMP DP  RH WIND       PRES   REMARKS
Spokane Intl   FLURRIES  30  26  85 NW5       30.14S WCI  25
Spokane Downto PTSUNNY   36  26  67 N3        30.16S
Coeur d Alene  MOSUNNY   32  24  72 CALM      30.15S
Deer Park      SUNNY     28  24  85 CALM      30.16F
Sandpoint      PTSUNNY   32  23  69 SW8       30.15S WCI  25
Bonners Ferry  MOCLDY    32  19  59 CALM      30.12S

...Southeast Washington and southern Idaho Panhandle...

CITY           SKY/WX    TMP DP  RH WIND       PRES   REMARKS
Walla Walla    MOSUNNY   41  24  51 N5        30.17R
Pullman/Moscow CLOUDY    34  18  52 SE5       30.14S WCI  30
Lewiston       CLOUDY    42  18  37 E8        30.16S
Lowell           N/A     37  25  61 S5        30.17F
Grangeville    MOCLDY    32  16  51 E5        30.09S WCI  27

...Columbia Basin...

CITY           SKY/WX    TMP DP  RH WIND       PRES   REMARKS
Ephrata        MOSUNNY   35  18  49 NW8       30.17S WCI  29
Moses Lake     SUNNY     37  24  59 NW5       30.19S
Pasco          MOSUNNY   45  17  32 VRB5      30.20S
Richland       PTCLDY    44  25  46 W3        30.20S
Hermiston      MOSUNNY   45  24  43 NE6       30.17S
Pendleton      MOSUNNY   41  18  39 CALM      30.14S

...East Slopes Cascades...

CITY           SKY/WX    TMP DP  RH WIND       PRES   REMARKS
The Dalles     PTSUNNY   45  24  43 CALM      30.17F
Yakima         MOSUNNY   41  23  48 W6        30.17S
Ellensburg     MOSUNNY   36  21  54 CALM      30.14S
Wenatchee      MOSUNNY   35  19  52 CALM      30.18S
Omak           SUNNY     33  21  61 S8        30.19S WCI  26
Sunnyside      PTCLDY    39  22  50 CALM      30.18S

...Southern British Columbia...

CITY           SKY/WX    TMP DP  RH WIND       PRES   REMARKS

...Western Montana...

CITY           SKY/WX    TMP DP  RH WIND       PRES   REMARKS
Kalispell      CLOUDY    30  15  53 CALM      30.08F
Libby            N/A     36  14  41 CALM      30.09F
Missoula       CLOUDY    32  15  49 N8        30.08S WCI  25

...Neighboring Cities...

CITY           SKY/WX    TMP DP  RH WIND       PRES   REMARKS
Seattle        MOSUNNY   47  27  45 CALM      30.16S
Portland       LGT RAIN  39  35  86 E8        30.18R
Boise          MOSUNNY   36  14  40 NW7       30.13F
Great Falls    PTCLDY    30  11  45 N9        30.01S WCI  22



USA.gov is the U.S. government's official web portal to all federal, state and local government web resources and services.